Showing default

COSMOS 2532, 43753

Orbit data source: Space-Track

COSMOS 2532, 43753 is a payload satellite owned by VVKO VKS (CIS) in LEO that was launched on Fri, 30 Nov 2018 UTC via an ROKOT launch vehicle from the Plesetsk Missile And Space Complex (PKMTR). Payload-class satellites include a variety of spacecraft equipped with specific instruments for various scientific and technological missions. These include communications satellites like Starlink; space stations such as the ISS; scientific satellites like the Hubble; Earth observation satellites from companies like Planet Labs, Umbra, and HawkEye 360; GPS; miniature CubeSats for education and research; and military/defense satellites.

Loading next visibility...
Identifier
43753, 2018-097C
Orbit
LEO
Country
Flag of CISCIS
Related business
Manufacturer
Resehetnev ISS
Mission
Operational Defense Communications
Bus & Motor
STRELA-3M, Unknown motor
Mass
280 kg wet, 280 kg dry
Launch date (UTC)
2018-11-30 (8 years ago)
Launch vehicle
ROKOT
Launch site
Plesetsk Missile And Space Complex (PKMTR)
Object type
Payload
Rocket body
Debris
Shape & HBR
Cyl + 1 Ant, 3.5 m
Radar Cross Section
1.583 m², Large (>1 m²)

Expand to show TLE details & history
Last TLE update: 8 hours ago

TLE from 8 hours ago
0 COSMOS 2532
1 43753U 18097C   26172.21057375 -.00000021  00000-0 -22254-3 0  9998
2 43753  82.5120 219.6280 0018988  51.9042 308.3747 12.42909871342773
Epoch: 2026-06-21T05:03Z
TLE epoch observation values (Epoch: 2026-06-21T05:03:13.571Z)
Latitude
0.00004°
Longitude
-125.59265°
Altitude
1,487.728 km
Speed
7.124 km/s
True Right ascension
14h 38m 30s
True Declination
0° 00' 00"
Sunlit
Object was in partial shadow at epoch
Visualization orbit readout
Latitude
Unknown
Longitude
Unknown
Altitude
Unknown
Speed
Unknown
Apparent Right ascension
Unknown
Apparent Declination
Unknown
Sunlit
N/A
Visualization observer readout
Local Sidereal Time
00:13:20
Azimuth
Unknown
Elevation
Unknown
Doppler factor
Unknown
Orbital elements
Apogee altitude
1,506.586 km
Perigee altitude
1,476.7 km
Semi-major axis
7,869.78 km
Eccentricity
0.0019
Inclination
82.512°
RAAN
219.628°
Arg. of periapsis
51.9042°
True anomaly
308.20387°
Mean anomaly
308.3747°
Eccentric anomaly
308.28931°
Mean motion
3.10885 °/min
Orbital period
115.8 mins
BSTAR
-0.00022254
Loading maneuver chart data...
Computing Atmospheric mass density...
Loading historical data...
Loading historical data...
Loading historical data...
Loading historical data...
Loading historical data...
Loading historical data...
Loading historical data...
Other satellites on launch #97 in the year 2018 (2018-11-30 UTC)

Documentation

Showing up to 5 results
|